sat.trackr.live / text

‹ back to catalog

KUIPER-00507

NORAD 68887 · 2026-095Z

PAYLOAD ACTIVE UNKNOWN

§ Identity

Operator
Country
US
Launch date
2026-04-28
Launch site
AFETR
Launch vehicle
Mass (kg)
RCS (m²)

External: N2YO · Heavens-Above · Gunter

§ Orbital elements

Epoch: 2026-09-19T06:25:14.641248Z

Period
97.30 min
Inclination
51.8992°
Eccentricity
0.0000954
Mean motion
14.79928117 rev/d
Perigee alt
628.9 km
Apogee alt
630.2 km
Semi-major
7,007.7 km
B*
6.3280e-5
RAAN
179.6284°
Arg perigee
86.1068°
Mean anomaly
274.0003°
Rev number
2,175

§ Raw data

KUIPER-005071 68887U 26095Z   26262.26753057  .00000261  00000+0  63280-4 0  99932 68887  51.8992 179.6284 0000954  86.1068 274.0003 14.79928117 21757

JSON: /api/v1/satellites/68887 · /tle

For live sub-satellite position, see the globe view (requires WebGL).

§ Visibility from observer

Set your observer location to see the next 7 days of passes ≥ 10°. The values pass through the URL so the page stays shareable.

No JS? Fill the form by hand. The geolocation button needs JavaScript.